Regional Weather Roundup
Issued by NWS

Home | Current Version | Previous Version | Text Only | Print | Product List | Glossary Off
Versions: 1 2 3 4 5 6 7 8 9 10 11 12 13 14 15 16 17 18 19 20 21 22 23 24 25 26 27

000
ASUS45 KTFX 282310
RWRMT
MONTANA REGIONAL WEATHER ROUNDUP
NATIONAL WEATHER SERVICE GREAT FALLS MT
500 PM MDT WED SEP 28 2016

NOTE: "FAIR" INDICATES FEW OR NO CLOUDS BELOW 12000 FEET WITH NO
SIGNIFICANT WEATHER AND/OR OBSTRUCTIONS TO VISIBILITY.

MTZ001>007-043-290000-
WEST OF THE DIVIDE

CITY           SKY/WX    TMP DP  RH WIND       PRES   REMARKS
KALISPELL      SUNNY     77  43  29 CALM      30.03F
MISSOULA       SUNNY     81  44  27 CALM      30.01F
BUTTE          SUNNY     75  36  24 SE13      30.17F
MULLAN PASS    SUNNY     69  41  36 CALM      30.16S
DEER LODGE       N/A     81  37  21 SE7       30.12S
EUREKA           N/A     72  39  30 NW6       30.05F
HAMILTON         N/A     81  46  30 CALM      30.03S
LIBBY            N/A     75  45  33 W3        30.00F
PLAINS           N/A     81  46  29 SE1       29.99F
RONAN            N/A     75  44  33 N6        30.08S
$$

MTZ008-052>055-290000-
SOUTHWEST MONTANA

CITY           SKY/WX    TMP DP  RH WIND       PRES   REMARKS
BOZEMAN        SUNNY     73  48  41 CALM      30.15F
DILLON         SUNNY     74  41  30 NE7       30.15F
W YELLOWSTONE  SUNNY     72  32  23 S12G17    30.29S
ENNIS          SUNNY     73  43  33 NW5       30.22S
THREE FORKS      N/A     74 -18   2 E1        30.13S
TWIN BRIDGES     N/A     76  39  26 N9        30.11F
$$

MTZ009-010-012-014-046-048-049-054-290000-
EAST SLOPES AND CENTRAL MONTANA

CITY           SKY/WX    TMP DP  RH WIND       PRES   REMARKS
CUT BANK       SUNNY     64  43  46 S8        30.18S
GREAT FALLS    SUNNY     66  45  46 NE5       30.15F
MALMSTROM AFB  SUNNY     66  48  51 NE7       30.15F
HELENA         SUNNY     75  44  33 VRB3      30.11F
AUGUSTA          N/A     61  43  50 S3        30.18S
BOWMANS CRNR     N/A     60  44  53 NE10      30.15F
CHOTEAU          N/A     64  45  48 S5        30.18F
CONRAD           N/A     66  48  52 E6        30.18S
FAIRFIELD        N/A     63  43  47 SE6       30.16S
POWER            N/A     63  44  49 E7        30.16F
RAYNESFORD       N/A     70  49  47 E10G17    30.15F
$$

MTZ011-013-016-021-045-047-050-051-290000-
NORTH CENTRAL MONTANA

CITY           SKY/WX    TMP DP  RH WIND       PRES   REMARKS
HAVRE          SUNNY     69  48  47 E15       30.15F
LEWISTOWN      SUNNY     70  49  47 E18       30.17F
N BAR RANCH      N/A     66  46  48 SE9       30.25S
CHINOOK          N/A     68  48  49 E9        30.16F
DENTON           N/A     69  49  49 NE12      30.11F
GEYSER           N/A     61  43  50 S3        30.18S
GRASS RANGE      N/A     67  49  51 E14       30.16F
JUDITH GAP       N/A     65  47  52 S15G26    30.22S
ROY              N/A     66  51  58 MISG      30.16F
STANFORD         N/A     69  47  44 SE23G31   30.14F
WINIFRED         N/A     66  49  54 MISG      30.15F
$$

MTZ017>020-022>027-061-062-290000-
NORTHEAST MONTANA

CITY           SKY/WX    TMP DP  RH WIND       PRES   REMARKS
GLASGOW        SUNNY     72  48  42 SE9       30.19F
JORDAN           N/A     73  51  46 SE13      30.19F
SIDNEY         SUNNY     72  54  53 CALM      30.23S
WOLF POINT     SUNNY     74  50  42 E9        30.21F
PLENTYWOOD       N/A     73  50  43 E9        30.23S
POPLAR           N/A     72  50  46 E7        30.22F VSB 1
SCOBEY           N/A     74  47  38 NE6       30.21F
$$

MTZ028>42-056>058-290000-
SOUTHCENTRAL AND SOUTHEAST MONTANA

CITY           SKY/WX    TMP DP  RH WIND       PRES   REMARKS
BAKER          SUNNY     75  51  43 SE9       30.25S
BILLINGS       SUNNY     71  51  49 E9        30.18F
LIVINGSTON     SUNNY     69  48  47 E16       30.19S
MILES CITY     SUNNY     74  53  48 E5        30.20F
BIG TIMBER     SUNNY     68  48  49 E8        30.23S
FORSYTH          N/A     73  54  49 E7        30.19S
HARLOWTON        N/A     64  48  55 E8        30.22S
LAUREL           N/A     71  49  45 NE8       30.15F
ROUNDUP          N/A     73  48  41 E8        30.09F
$$

REGIONAL REPORTS...DAKOTAS

CITY           SKY/WX    TMP DP  RH WIND       PRES   REMARKS
WILLISTON      SUNNY     76  51  41 SE8       30.24R
MINOT          SUNNY     68  37  32 E9        30.30R
DICKINSON      SUNNY     71  44  37 SE14      30.26R
BEACH            N/A     75  54  46 SE9       30.28S
CROSBY           N/A     73  45  35 SE14      30.27R
WATFORD CITY     N/A     73  48  40 SE13      30.25S
BISMARCK       SUNNY     67  44  43 E7        30.30R
GRAND FORKS    MOSUNNY   62  46  55 NE6       30.35R
FARGO          PTSUNNY   65  46  50 NE8       30.33R
BUFFALO SD       N/A     79  47  32 SE13      30.19R
RAPID CITY     SUNNY     76  45  33 SE6       30.27R
$$

REGIONAL REPORTS...WYOMING/IDAHO/WASHINGTON

CITY           SKY/WX    TMP DP  RH WIND       PRES   REMARKS
GILLETTE       MOSUNNY   77  42  28 SE10      30.26F
SHERIDAN       SUNNY     79  36  21 SE21G32   30.20F
CODY           SUNNY     77  36  22 SE15G21   30.22F
YELLOWSTONE LA   N/A     66  29  24 VRB5      30.38S
IDAHO FALLS    SUNNY     81  41  24 W8        30.14F
SALMON         SUNNY     81  41  24 N6        30.03F
BOISE          SUNNY     92  31  11 SE16G24   29.92F
SPOKANE        MOSUNNY   80  43  26 VRB3      29.97F
$$

REGIONAL REPORTS...ALBERTA

CITY           SKY/WX    TMP DP  RH WIND       PRES   REMARKS
EDMONTON       MOSUNNY   59  30  33 S20       30.23F
CALGARY        PTSUNNY   54  39  58 SE10      30.21F
MEDICINE HAT   PTSUNNY   61  39  44 NE12G20   30.20F
WATERTON GATE    N/A     63  39  42 N6          N/A
CARDSTON         N/A     64  41  42 SE6         N/A
MILK RIVER       N/A     66  43  42 SE12        N/A
$$

REGIONAL REPORTS...SASKATCHEWAN

CITY           SKY/WX    TMP DP  RH WIND       PRES   REMARKS
SWIFT CURRENT  PTSUNNY   59  39  47 NE16      30.26F
REGINA         MOSUNNY   66  45  45 E14       30.26S
SASKATOON      CLOUDY    55  37  50 VRB2      30.37R
VAL MARIE        N/A     72  46  40 E9          N/A
ROCKGLEN         N/A     68  48  49 E8          N/A
ASSINIBOIA       N/A     57  34  41 SE10        N/A
$$




USA.gov is the U.S. government's official web portal to all federal, state and local government web resources and services.